Time,TemperatureF,DewpointF,PressureIn,WindDirection,WindDirectionDegrees,WindSpeedMPH,WindSpeedGustMPH,Humidity,HourlyPrecipIn,Conditions,Clouds,dailyrainin,SolarRadiationWatts/m^2,SoftwareType,DateUTC
2013-04-26 00:02:00,45.0,43.0,-100.00,SSW,213,2.0,2.0,92,0.00,,,0.00,0.000000,,2013-04-26 05:02:00,
2013-04-26 00:32:00,45.0,41.0,-100.00,SE,133,0.0,3.0,86,0.00,,,0.00,0.000000,,2013-04-26 05:32:00,
2013-04-26 00:42:00,45.0,41.0,-100.00,SE,133,0.0,3.0,86,0.00,,,0.00,0.000000,,2013-04-26 05:42:00,
2013-04-26 00:52:00,45.0,41.0,-100.00,SE,133,0.0,3.0,86,0.00,,,0.00,0.000000,,2013-04-26 05:52:00,
2013-04-26 01:02:00,45.0,41.0,-100.00,SE,133,0.0,3.0,86,0.00,,,0.00,0.000000,,2013-04-26 06:02:00,
2013-04-26 01:32:00,44.0,43.0,-100.00,ESE,119,1.0,2.0,96,0.00,,,-99.99,0.000000,,2013-04-26 06:32:00,
2013-04-26 01:42:00,44.0,43.0,-100.00,ESE,119,1.0,2.0,96,0.00,,,-99.99,0.000000,,2013-04-26 06:42:00,
2013-04-26 01:52:00,44.0,43.0,-100.00,ESE,119,1.0,2.0,96,0.00,,,-99.99,0.000000,,2013-04-26 06:52:00,
2013-04-26 02:01:00,44.0,43.0,-100.00,ESE,119,1.0,2.0,96,0.00,,,-99.99,0.000000,,2013-04-26 07:01:00,
2013-04-26 02:32:00,42.0,41.0,-100.00,SE,126,0.0,10.0,96,0.00,,,0.00,0.000000,,2013-04-26 07:32:00,
2013-04-26 02:42:00,42.0,41.0,-100.00,SE,126,0.0,10.0,96,0.00,,,0.00,0.000000,,2013-04-26 07:42:00,
2013-04-26 02:52:00,42.0,41.0,-100.00,SE,126,0.0,10.0,96,0.00,,,0.00,0.000000,,2013-04-26 07:52:00,
2013-04-26 03:02:00,42.0,41.0,-100.00,SE,126,0.0,10.0,96,0.00,,,0.00,0.000000,,2013-04-26 08:02:00,
2013-04-26 03:32:00,41.0,41.0,-100.00,WNW,286,1.0,3.0,100,0.00,,,0.00,0.000000,,2013-04-26 08:32:00,
2013-04-26 03:42:00,41.0,41.0,-100.00,WNW,286,1.0,3.0,100,0.00,,,0.00,0.000000,,2013-04-26 08:42:00,
2013-04-26 03:52:00,41.0,41.0,-100.00,WNW,286,1.0,3.0,100,0.00,,,0.00,0.000000,,2013-04-26 08:52:00,
2013-04-26 04:01:00,41.0,41.0,-100.00,WNW,286,1.0,3.0,100,0.00,,,0.00,0.000000,,2013-04-26 09:01:00,
2013-04-26 04:33:00,40.0,40.0,-100.00,NNE,29,0.0,2.0,100,0.00,,,0.00,0.000000,,2013-04-26 09:33:00,
2013-04-26 04:43:00,40.0,40.0,-100.00,NNE,29,0.0,2.0,100,0.00,,,0.00,0.000000,,2013-04-26 09:43:00,
2013-04-26 04:53:00,40.0,40.0,-100.00,NNE,29,0.0,2.0,100,0.00,,,0.00,0.000000,,2013-04-26 09:53:00,
2013-04-26 05:03:00,40.0,40.0,-100.00,NNE,29,0.0,2.0,100,0.00,,,0.00,0.000000,,2013-04-26 10:03:00,
2013-04-26 05:33:00,40.0,40.0,-100.00,South,172,0.0,2.0,100,0.00,,,0.00,0.000000,,2013-04-26 10:33:00,
2013-04-26 05:42:00,40.0,40.0,-100.00,South,172,0.0,2.0,100,0.00,,,0.00,0.000000,,2013-04-26 10:42:00,
2013-04-26 05:52:00,40.0,40.0,-100.00,South,172,0.0,2.0,100,0.00,,,0.00,0.000000,,2013-04-26 10:52:00,
2013-04-26 06:02:00,40.0,40.0,-100.00,South,172,0.0,2.0,100,0.00,,,0.00,0.000000,,2013-04-26 11:02:00,
2013-04-26 06:32:00,42.0,41.0,-100.00,NE,53,2.0,3.0,98,0.00,,,0.00,1.000000,,2013-04-26 11:32:00,
2013-04-26 06:42:00,42.0,41.0,-100.00,NE,53,2.0,3.0,98,0.00,,,0.00,1.000000,,2013-04-26 11:42:00,
2013-04-26 06:52:00,42.0,41.0,-100.00,NE,53,2.0,3.0,98,0.00,,,0.00,1.000000,,2013-04-26 11:52:00,
2013-04-26 07:01:00,42.0,41.0,-100.00,NE,53,2.0,3.0,98,0.00,,,0.00,1.000000,,2013-04-26 12:01:00,
2013-04-26 07:32:00,43.0,41.0,-100.00,East,91,1.0,3.0,91,0.00,,,-99.99,31.000000,,2013-04-26 12:32:00,
2013-04-26 07:42:00,43.0,41.0,-100.00,East,91,1.0,3.0,91,0.00,,,-99.99,31.000000,,2013-04-26 12:42:00,
2013-04-26 07:52:00,43.0,41.0,-100.00,East,91,1.0,3.0,91,0.00,,,-99.99,31.000000,,2013-04-26 12:52:00,
2013-04-26 08:01:00,43.0,41.0,-100.00,East,91,1.0,3.0,91,0.00,,,-99.99,31.000000,,2013-04-26 13:01:00,
2013-04-26 08:32:00,49.0,42.0,-100.00,SE,135,2.0,4.0,76,0.00,,,0.00,102.000000,,2013-04-26 13:32:00,
2013-04-26 08:42:00,49.0,42.0,-100.00,SE,135,2.0,4.0,76,0.00,,,0.00,102.000000,,2013-04-26 13:42:00,
2013-04-26 08:52:00,49.0,42.0,-100.00,SE,135,2.0,4.0,76,0.00,,,0.00,102.000000,,2013-04-26 13:52:00,
2013-04-26 09:01:00,49.0,42.0,-100.00,SE,135,2.0,4.0,76,0.00,,,0.00,102.000000,,2013-04-26 14:01:00,
2013-04-26 09:32:00,58.0,44.0,-100.00,ENE,58,3.0,7.0,59,0.00,,,0.00,318.000000,,2013-04-26 14:32:00,
2013-04-26 09:42:00,58.0,44.0,-100.00,ENE,58,3.0,7.0,59,0.00,,,0.00,318.000000,,2013-04-26 14:42:00,
2013-04-26 09:52:00,58.0,44.0,-100.00,ENE,58,3.0,7.0,59,0.00,,,0.00,318.000000,,2013-04-26 14:52:00,
2013-04-26 10:01:00,58.0,44.0,-100.00,ENE,58,3.0,7.0,59,0.00,,,0.00,318.000000,,2013-04-26 15:01:00,
2013-04-26 10:33:00,60.0,37.0,-100.00,NE,52,3.0,7.0,43,0.00,,,0.00,487.000000,,2013-04-26 15:33:00,
2013-04-26 10:43:00,60.0,37.0,-100.00,NE,52,3.0,7.0,43,0.00,,,0.00,487.000000,,2013-04-26 15:43:00,
2013-04-26 10:53:00,60.0,37.0,-100.00,NE,52,3.0,7.0,43,0.00,,,0.00,487.000000,,2013-04-26 15:53:00,
2013-04-26 11:03:00,60.0,37.0,-100.00,NE,52,3.0,7.0,43,0.00,,,0.00,487.000000,,2013-04-26 16:03:00,
2013-04-26 11:33:00,62.0,39.0,-100.00,South,180,2.0,9.0,43,0.00,,,0.00,413.000000,,2013-04-26 16:33:00,
2013-04-26 11:42:00,62.0,39.0,-100.00,South,180,2.0,9.0,43,0.00,,,0.00,413.000000,,2013-04-26 16:42:00,
2013-04-26 11:53:00,62.0,39.0,-100.00,South,180,2.0,9.0,43,0.00,,,0.00,413.000000,,2013-04-26 16:53:00,
2013-04-26 12:02:00,62.0,39.0,-100.00,South,180,2.0,9.0,43,0.00,,,0.00,413.000000,,2013-04-26 17:02:00,
2013-04-26 12:32:00,60.0,36.0,-100.00,NNE,23,4.0,9.0,40,0.00,,,0.00,325.000000,,2013-04-26 17:32:00,
2013-04-26 12:42:00,60.0,36.0,-100.00,NNE,23,4.0,9.0,40,0.00,,,0.00,325.000000,,2013-04-26 17:42:00,
2013-04-26 12:52:00,60.0,36.0,-100.00,NNE,23,4.0,9.0,40,0.00,,,0.00,325.000000,,2013-04-26 17:52:00,
2013-04-26 13:02:00,60.0,36.0,-100.00,NNE,23,4.0,9.0,40,0.00,,,0.00,325.000000,,2013-04-26 18:02:00,
2013-04-26 13:33:00,59.0,37.0,-100.00,NE,46,4.0,9.0,43,0.00,,,0.00,233.000000,,2013-04-26 18:33:00,
2013-04-26 13:42:00,59.0,37.0,-100.00,NE,46,4.0,9.0,43,0.00,,,0.00,233.000000,,2013-04-26 18:42:00,
2013-04-26 13:52:00,59.0,37.0,-100.00,NE,46,4.0,9.0,43,0.00,,,0.00,233.000000,,2013-04-26 18:52:00,
2013-04-26 14:01:00,59.0,37.0,-100.00,NE,46,4.0,9.0,43,0.00,,,0.00,233.000000,,2013-04-26 19:01:00,
2013-04-26 14:32:00,58.0,39.0,-100.00,NNE,27,6.0,10.0,49,0.00,,,0.00,167.000000,,2013-04-26 19:32:00,
2013-04-26 14:42:00,58.0,39.0,-100.00,NNE,27,6.0,10.0,49,0.00,,,0.00,167.000000,,2013-04-26 19:42:00,
2013-04-26 14:52:00,58.0,39.0,-100.00,NNE,27,6.0,10.0,49,0.00,,,0.00,167.000000,,2013-04-26 19:52:00,
2013-04-26 15:02:00,58.0,39.0,-100.00,NNE,27,6.0,10.0,49,0.00,,,0.00,167.000000,,2013-04-26 20:02:00,
2013-04-26 15:32:00,57.0,44.0,-100.00,NNW,345,2.0,9.0,61,0.00,,,0.00,141.000000,,2013-04-26 20:32:00,
2013-04-26 15:42:00,57.0,44.0,-100.00,NNW,345,2.0,9.0,61,0.00,,,0.00,141.000000,,2013-04-26 20:42:00,
2013-04-26 15:52:00,57.0,44.0,-100.00,NNW,345,2.0,9.0,61,0.00,,,0.00,141.000000,,2013-04-26 20:52:00,
2013-04-26 16:02:00,57.0,44.0,-100.00,NNW,345,2.0,9.0,61,0.00,,,0.00,141.000000,,2013-04-26 21:02:00,
2013-04-26 16:33:00,53.0,48.0,-100.00,West,263,3.0,7.0,83,0.03,,,0.03,75.000000,,2013-04-26 21:33:00,
2013-04-26 16:42:00,53.0,48.0,-100.00,West,263,3.0,7.0,83,0.03,,,0.03,75.000000,,2013-04-26 21:42:00,
2013-04-26 16:53:00,53.0,48.0,-100.00,West,263,3.0,7.0,83,0.03,,,0.03,75.000000,,2013-04-26 21:53:00,
2013-04-26 17:02:00,53.0,48.0,-100.00,West,263,3.0,7.0,83,0.03,,,0.03,75.000000,,2013-04-26 22:02:00,
2013-04-26 17:33:00,51.0,49.0,-100.00,NNW,347,7.0,13.0,94,0.08,,,0.11,48.000000,,2013-04-26 22:33:00,
2013-04-26 17:42:00,51.0,49.0,-100.00,NNW,347,7.0,13.0,94,0.08,,,0.11,48.000000,,2013-04-26 22:42:00,
2013-04-26 17:52:00,51.0,49.0,-100.00,NNW,347,7.0,13.0,94,0.08,,,0.11,48.000000,,2013-04-26 22:52:00,
2013-04-26 18:02:00,51.0,49.0,-100.00,NNW,347,7.0,13.0,94,0.08,,,0.11,48.000000,,2013-04-26 23:02:00,
2013-04-26 18:32:00,49.0,49.0,-100.00,NE,40,5.0,8.0,100,0.03,,,0.14,35.000000,,2013-04-26 23:32:00,
2013-04-26 18:42:00,49.0,49.0,-100.00,NE,40,5.0,8.0,100,0.03,,,0.14,35.000000,,2013-04-26 23:42:00,
2013-04-26 18:52:00,49.0,49.0,-100.00,NE,40,5.0,8.0,100,0.03,,,0.14,35.000000,,2013-04-26 23:52:00,
2013-04-26 19:01:00,49.0,49.0,-100.00,NE,40,5.0,8.0,100,0.03,,,0.14,35.000000,,2013-04-27 00:01:00,
2013-04-26 19:32:00,49.0,49.0,-100.00,East,97,1.0,4.0,100,0.01,,,0.15,20.000000,,2013-04-27 00:32:00,
2013-04-26 19:42:00,49.0,49.0,-100.00,East,97,1.0,4.0,100,0.01,,,0.15,20.000000,,2013-04-27 00:42:00,
2013-04-26 19:52:00,49.0,49.0,-100.00,East,97,1.0,4.0,100,0.01,,,0.15,20.000000,,2013-04-27 00:52:00,
2013-04-26 20:01:00,49.0,49.0,-100.00,East,97,1.0,4.0,100,0.01,,,0.15,20.000000,,2013-04-27 01:01:00,
2013-04-26 20:32:00,49.0,49.0,-100.00,SW,233,2.0,4.0,100,0.00,,,0.15,3.000000,,2013-04-27 01:32:00,
2013-04-26 20:42:00,49.0,49.0,-100.00,SW,233,2.0,4.0,100,0.00,,,0.15,3.000000,,2013-04-27 01:42:00,
2013-04-26 20:52:00,49.0,49.0,-100.00,SW,233,2.0,4.0,100,0.00,,,0.15,3.000000,,2013-04-27 01:52:00,
2013-04-26 21:01:00,49.0,49.0,-100.00,SW,233,2.0,4.0,100,0.00,,,0.15,3.000000,,2013-04-27 02:01:00,
2013-04-26 21:32:00,49.0,49.0,-100.00,South,188,1.0,3.0,100,0.00,,,0.15,0.000000,,2013-04-27 02:32:00,
2013-04-26 21:42:00,49.0,49.0,-100.00,South,188,1.0,3.0,100,0.00,,,0.15,0.000000,,2013-04-27 02:42:00,
2013-04-26 21:52:00,49.0,49.0,-100.00,South,188,1.0,3.0,100,0.00,,,0.15,0.000000,,2013-04-27 02:52:00,
2013-04-26 22:02:00,49.0,49.0,-100.00,South,188,1.0,3.0,100,0.00,,,0.15,0.000000,,2013-04-27 03:02:00,
2013-04-26 22:33:00,49.0,49.0,-100.00,East,87,2.0,4.0,100,0.00,,,0.15,0.000000,,2013-04-27 03:33:00,
2013-04-26 22:43:00,49.0,49.0,-100.00,East,87,2.0,4.0,100,0.00,,,0.15,0.000000,,2013-04-27 03:43:00,
2013-04-26 22:53:00,49.0,49.0,-100.00,East,87,2.0,4.0,100,0.00,,,0.15,0.000000,,2013-04-27 03:53:00,
2013-04-26 23:03:00,49.0,49.0,-100.00,East,87,2.0,4.0,100,0.00,,,0.15,0.000000,,2013-04-27 04:03:00,
2013-04-26 23:33:00,50.0,50.0,-100.00,SSW,209,2.0,7.0,100,0.00,,,0.15,0.000000,,2013-04-27 04:33:00,
2013-04-26 23:43:00,50.0,50.0,-100.00,SSW,209,2.0,7.0,100,0.00,,,0.15,0.000000,,2013-04-27 04:43:00,
2013-04-26 23:53:00,50.0,50.0,-100.00,SSW,209,2.0,7.0,100,0.00,,,0.15,0.000000,,2013-04-27 04:53:00,